www.pogodaiklimat.ru

Погода и климат >> Архив погоды >> Боливия >> Yacuiba


ПОГОДА в Yacuiba

  • Прогноз погоды в Yacuiba
  • Монитор погоды в Yacuiba
  • Климат города

АРХИВ ПОГОДЫ в Yacuiba

Время (UTC), дата Ветер
(напр.,м/с)
 
Видим.   Явления Облачность Т
(С)
Тd
(С)
f
(%)
Тe
(С)
Тes
(С)
Комфортность P
(гПа)
Po
(гПа)
Тmin
(С)
Tmax
(С)
R
(мм)
R24
(мм)
S
(см)
21 12.09 ЮЗ 4 15 км дым ясно +31.3 +14.4 36 +33 +34 жарко 1005.3 932.7 +34.0
12 13.09 ЮЗ 4 15 км дым 8/3 700 м
[Sc Ac trans]
+24.4 +19.6 75 +30 +31 очень
душно
1011.3 937.6 +18.6
15 13.09 ЮЗ 6 15 км дым 5/3 700 м
[Cu hum Ci fib]
+26.2 +18.2 61 +31 +35 очень
душно
1011.6 937.6
21 13.09 ЮЗ 5 15 км дым 8/4 700 м
[Cu hum Ac trans]
+24.5 +16.3 60 +28 +28 душно 1009.2 935.4 +28.3
12 14.09 ЮЗ 5 3000 м слабая морось 10/6 150 м
[Frnb As op]
+13.1 +13.0 99 +11 +11 1017.8 943.3 +9.2 8
15 14.09 штиль 0 4000 м слабая морось 10/6 150 м
[Frnb As op]
+14.7 +14.6 99 +14 +16 1015.8 943.0
18 14.09 ЮЗ 3 5000 м осадки на расстоянии {морось} 10/8 90 м
[Frnb As op]
+15.8 +15.1 96 +15 +16 1014.2 939.6 3
21 14.09 ЮЗ 3 2500 м слабая морось 10/8 90 м
[Frnb As op]
+15.3 +14.8 97 +15 +15 1016.9 938.5 +17.6
12 15.09 штиль 0 20 км 10/6 900 м
[Sc As op]
+16.8 +16.1 96 +17 +17 1014.0 939.8 +12.9 6
15 15.09 СВ 3 20 км 10/4 600 м
[Sc As op]
+19.4 +16.3 82 +22 +23 комфорт 1013.9 939.6
18 15.09 СВ 4 20 км 10/6 600 м
[Sc As op]
+19.6 +16.8 84 +22 +23 комфорт 1010.9 936.5
21 15.09 С 3 20 км 10/8 500 м
[Sc As op]
+19.8 +17.4 86 +23 +23 комфорт 1017.8 934.0 +21.8
12 16.09 штиль 0 20 км 10/5 450 м
[Sc Ci sp]
+18.7 +16.0 84 +20 +22 1010.2 936.3 +15.4
15 16.09 Ю 2 20 км 8/3 600 м
[Sc As op]
+25.1 +17.4 62 +29 +35 душно 1009.7 935.7
18 16.09 Ю 3 20 км 9/3 600 м
[Sc As op]
+27.8 +16.8 51 +31 +34 душно 1007.4 933.6
21 16.09 ЮЗ 4 20 км 8/3 600 м
[Sc As op]
+24.4 +17.8 67 +29 +29 душно 1009.6 935.6 +28.8
12 17.09 штиль 0 20 км 6/0 2000 м
[Ac trans]
+20.5 +16.2 76 +23 +26 комфорт 1014.3 939.8 +12.6
15 17.09 СВ 4 20 км 8/3 750 м
[Cu hum Ac trans]
+25.7 +15.6 54 +29 +33 душно 1014.6 940.0
18 17.09 СВ 5 20 км 5/5 700 м
[Cu hum]
+28.9 +16.5 47 +32 +36 душно 1009.3 936.2
21 17.09 В 4 20 км ясно +28.2 +16.2 48 +31 +33 душно 1008.6 935.0 +30.2
12 18.09 штиль 0 20 км ясно +21.2 +16.5 75 +25 +30 комфорт 1007.6 934.4 +10.9
15 18.09 СВ 5 20 км ясно +29.5 +18.1 50 +34 +43 очень
душно
1006.4 933.8
18 18.09 СВ 6 20 км ясно +33.2 +17.8 40 +37 +43 очень
душно
1003.9 929.9
21 18.09 СВ 5 20 км ясно +32.8 +17.4 40 +37 +38 очень
душно
1001.6 927.7 +34.4
12 19.09 ЮЗ 3 20 км ясно +24.2 +18.3 70 +29 +32 душно 1004.2 930.7 +13.6
15 19.09 ЮЗ 6 20 км 3/0
[Cc]
+32.3 +18.9 45 +37 +43 очень
душно
1006.4 932.7
18 19.09 ЮЗ 4 20 км 3/0
[Ci fib]
+34.5 +18.1 38 +39 +48 очень
душно
1004.6 931.4

 

Местоположение метеостанции Yacuiba (Боливия): широта -21.95 долгота -63.65 высота над уровнем моря 645 м.

В архиве по умолчанию представлена погода в Yacuiba за последнюю неделю. Архивные данные за месяц целиком и за предыдущие месяцы, начиная с января 2011 года, Вы можете получить, выбрав интересующий диапазон дат из раскрывающегося списка и нажав кнопку "Ввод!".


*Определитесь, кто Вы:
робот инопланетянин человек

Внимание! Время в таблицах - всемирное. Для получения местного времени необходимо прибавить поправку, которая в Yacuiba равна -4 ч.

Смотрите также архив погоды в соседних городах и на ближайших метеорологических станциях:

Погода в Tartagal (Аргентина) (76 км)
Погода в Villamontes (Боливия) (81 км)
Погода в Bermejo (Боливия) (113 км)
Погода в Tarija (Боливия) (117 км)
Погода в San Ramon de la Nueva Oran (Аргентина) (150 км)
Погода в La Quiaca (Аргентина) (202 км)
Погода в Camiri (Боливия) (217 км)
Погода в Prats-Gil (Парагвай) (236 км)
Погода в Monteagudo (Боливия) (243 км)
Погода в San Salvador de Jujuy (Аргентина) (307 км)

Пояснения к столбцам:

Ветер - указаны скорость ветра в м/с - средняя за 10 мин, порывы в срок и между сроками (в фигурных скобках) и направление, откуда дует ветер: С - северный, СВ - северо-восточный, В - восточный, ЮВ - юго-восточный, Ю - южный, ЮЗ - юго-западный, З - западный, СЗ - северо-западный.
Видимость - горизонтальная дальность видимости в метрах или километрах. При видимости от 1 до 10 км при отсутствии осадков обычно наблюдается дымка, при ухудшении видимости до 1 км и менее - туман. В сухую погоду видимость может ухудшаться дымом, пылью или мглою.
Явления - указаны атмосферные явления, наблюдавшиеся в срок или в последний час перед сроком; фигурными скобками обозначены явления, наблюдавшиеся между сроками (за 1-3 часа до срока); квадратными скобками обозначены град или гололедные отложения с указанием их диаметра в мм.
Облачность - указаны через наклонную черту общая и нижняя облачность в баллах и высота нижней границы облаков в метрах; квадратными скобками обозначены формы облаков: Ci - перистые, Cs - перисто-слоистые, Cc - перисто-кучевые, Ac - высококучевые, As - высокослоистые, Sc - слоисто-кучевые, Ns - слоисто-дождевые, Cu - кучевые, Cb - кучево-дождевые. Подробнее классификацию облаков см. в Атласе облаков (PDF).
T - Температура воздуха - температура, измеренная на высоте 2 м над землей.
Td - Температура точки росы - температура, при понижении до которой содержащийся в воздухе водяной пар достигнет насыщения.
f - Относительная влажность воздуха - влажноcть воздуха, измеренная на высоте 2 м над землей.
Te - Эффективная температура - температура, которую ощущает одетый по сезону человек в тени. Характеристика душности погоды. При расчете учитывается влияние влажности воздуха и скорости ветра на теплоощущения человека.
Tes - Эффективная температура на солнце - температура, которую ощущает человек, с поправкой на солнечный нагрев. Характеристика знойности погоды. Зависит от высоты солнца над горизонтом, облачности и скорости ветра. Ночью, в пасмурную погоду, а также при ветре 12 м/с и более поправка равна нулю.
P - Атмосферное давление - приведенное к уровню моря атмосферное давление.
Po - Атмосферное давление - измеренное на уровне метеостанции атмосферное давление.
Tmin - Минимальная температура - минимум температуры воздуха на высоте 2 м над землей.
Tmax - Максимальная температура - максимум температуры воздуха на высоте 2 м над землей.
R - Количество осадков - Количество выпавших осадков за период времени, мм. При наведении курсора мыши на число - период времени, за который выпало указанное количество осадков.
R24 - Количество осадков - Количество выпавших осадков за 24 часа, мм.
S - Снежный покров - Высота снежного покрова, см. При наведении курсора мыши на число - состояние снежного покрова и степень покрытия местности в баллах.